User: anonymous   Login
Location: Unspecified
(0.0000°N, 0.0000°E)
Time: 10:43:51
(UTC+00:00)
Language:

USA 283 - Orbit

View from above orbital plane
View from above orbital plane
View from above satellite
View from above satellite

Ground track
Ground track

The orbit data is extracted from the following two-line orbital elements,

1 43339U 18036A   18354.48729645 0.00000000  00000-0  00000-0 0    09
2 43339   0.0107 153.2234 0002000 132.8246 227.2091  1.00270000    03
Epoch (UTC): 20 December 2018 11:41:42
Eccentricity: 0.0002000
inclination: 0.0107°
perigee height: 35778 km
apogee height: 35795 km
right ascension of ascending node: 153.2234°
argument of perigee: 132.8246°
revolutions per day: 1.00270000
mean anomaly at epoch: 227.2091°
orbit number at epoch: 0

The dashed part of the orbit path shows where the satellite is in the earth's shadow,  

DLR